Time,TemperatureF,DewpointF,PressureIn,WindDirection,WindDirectionDegrees,WindSpeedMPH,WindSpeedGustMPH,Humidity,HourlyPrecipIn,Conditions,Clouds,dailyrainin,SoftwareType,DateUTC
2013-03-05 00:13:00,31.7,28.0,30.27,North,355,2.0,6.0,86,0.00,,,0.00,weatherlink.com 1.10,2013-03-05 09:13:00,
2013-03-05 00:28:00,31.6,29.0,30.28,North,355,1.0,3.0,88,0.00,,,0.00,weatherlink.com 1.10,2013-03-05 09:28:00,
2013-03-05 00:43:00,31.8,28.0,30.28,North,355,2.0,3.0,87,0.00,,,0.00,weatherlink.com 1.10,2013-03-05 09:43:00,
2013-03-05 00:58:00,31.7,28.0,30.27,North,355,3.0,5.0,87,0.00,,,0.00,weatherlink.com 1.10,2013-03-05 09:58:00,
2013-03-05 01:13:00,31.6,29.0,30.27,North,355,3.0,4.0,88,0.00,,,0.00,weatherlink.com 1.10,2013-03-05 10:13:00,
2013-03-05 01:28:00,31.6,29.0,30.27,North,355,4.0,4.0,88,0.00,,,0.00,weatherlink.com 1.10,2013-03-05 10:28:00,
2013-03-05 01:43:00,31.6,29.0,30.27,North,355,3.0,3.0,88,0.00,,,0.00,weatherlink.com 1.10,2013-03-05 10:43:00,
2013-03-05 01:58:00,31.4,29.0,30.27,North,355,1.0,4.0,89,0.00,,,0.00,weatherlink.com 1.10,2013-03-05 10:58:00,
2013-03-05 02:13:00,31.3,29.0,30.27,North,355,3.0,4.0,89,0.00,,,0.00,weatherlink.com 1.10,2013-03-05 11:13:00,
2013-03-05 02:28:00,31.5,29.0,30.27,North,355,3.0,4.0,89,0.00,,,0.00,weatherlink.com 1.10,2013-03-05 11:28:00,
2013-03-05 02:43:00,30.3,28.0,30.26,North,355,1.0,5.0,89,0.00,,,0.00,weatherlink.com 1.10,2013-03-05 11:43:00,
2013-03-05 02:58:00,30.6,28.0,30.25,North,355,2.0,4.0,90,0.00,,,0.00,weatherlink.com 1.10,2013-03-05 11:58:00,
2013-03-05 03:13:00,30.9,28.0,30.25,North,355,2.0,4.0,90,0.00,,,0.00,weatherlink.com 1.10,2013-03-05 12:13:00,
2013-03-05 03:28:00,31.0,29.0,30.24,North,5,2.0,5.0,91,0.00,,,0.00,weatherlink.com 1.10,2013-03-05 12:28:00,
2013-03-05 03:43:00,31.4,29.0,30.23,North,5,1.0,3.0,90,0.00,,,0.00,weatherlink.com 1.10,2013-03-05 12:43:00,
2013-03-05 03:58:00,30.3,28.0,30.23,North,5,3.0,4.0,89,0.00,,,0.00,weatherlink.com 1.10,2013-03-05 12:58:00,
2013-03-05 04:13:00,30.4,28.0,30.22,North,5,2.0,3.0,91,0.00,,,0.00,weatherlink.com 1.10,2013-03-05 13:13:00,
2013-03-05 04:28:00,31.0,29.0,30.21,North,5,1.0,2.0,90,0.00,,,0.00,weatherlink.com 1.10,2013-03-05 13:28:00,
2013-03-05 04:43:00,30.6,27.0,30.21,North,5,1.0,2.0,87,0.00,,,0.00,weatherlink.com 1.10,2013-03-05 13:43:00,
2013-03-05 04:58:00,29.8,27.0,30.21,North,5,3.0,4.0,90,0.00,,,0.00,weatherlink.com 1.10,2013-03-05 13:58:00,
2013-03-05 05:13:00,29.3,27.0,30.20,North,5,3.0,3.0,90,0.00,,,0.00,weatherlink.com 1.10,2013-03-05 14:13:00,
2013-03-05 05:28:00,28.6,26.0,30.20,North,5,3.0,4.0,90,0.00,,,0.00,weatherlink.com 1.10,2013-03-05 14:28:00,
2013-03-05 05:43:00,28.9,27.0,30.20,North,5,2.0,3.0,92,0.00,,,0.00,weatherlink.com 1.10,2013-03-05 14:43:00,
2013-03-05 05:58:00,29.2,27.0,30.20,North,5,3.0,4.0,91,0.00,,,0.00,weatherlink.com 1.10,2013-03-05 14:58:00,
2013-03-05 06:13:00,28.5,27.0,30.20,North,5,3.0,4.0,92,0.00,,,0.00,weatherlink.com 1.10,2013-03-05 15:13:00,
2013-03-05 06:28:00,27.3,25.0,30.19,North,5,3.0,5.0,90,0.00,,,0.00,weatherlink.com 1.10,2013-03-05 15:28:00,
2013-03-05 06:43:00,26.5,24.0,30.19,NNW,334,3.0,5.0,91,0.00,,,0.00,weatherlink.com 1.10,2013-03-05 15:43:00,
2013-03-05 06:58:00,26.0,25.0,30.19,NNW,334,4.0,5.0,94,0.00,,,0.00,weatherlink.com 1.10,2013-03-05 15:58:00,
2013-03-05 07:13:00,26.9,25.0,30.19,NNW,335,5.0,6.0,92,0.00,,,0.00,weatherlink.com 1.10,2013-03-05 16:13:00,
2013-03-05 07:28:00,26.1,24.0,30.19,NNW,336,3.0,5.0,93,0.00,,,0.00,weatherlink.com 1.10,2013-03-05 16:28:00,
2013-03-05 07:43:00,27.7,26.0,30.18,NNW,336,2.0,5.0,93,0.00,,,0.00,weatherlink.com 1.10,2013-03-05 16:43:00,
2013-03-05 07:58:00,29.0,27.0,30.18,NNW,336,2.0,3.0,91,0.00,,,0.00,weatherlink.com 1.10,2013-03-05 16:58:00,
2013-03-05 08:14:00,29.0,26.0,30.18,NNW,336,3.0,5.0,87,0.00,,,0.00,weatherlink.com 1.10,2013-03-05 17:14:00,
2013-03-05 08:29:00,28.0,26.0,30.17,NNW,336,3.0,5.0,91,0.00,,,0.00,weatherlink.com 1.10,2013-03-05 17:29:00,
2013-03-05 08:44:00,28.2,26.0,30.16,NNW,336,2.0,4.0,91,0.00,,,0.00,weatherlink.com 1.10,2013-03-05 17:44:00,
2013-03-05 09:14:00,31.9,28.0,30.15,NNW,344,1.0,5.0,85,0.00,,,0.00,weatherlink.com 1.10,2013-03-05 18:14:00,
2013-03-05 09:29:00,33.2,28.0,30.14,North,10,4.0,5.0,81,0.00,,,0.00,weatherlink.com 1.10,2013-03-05 18:29:00,
2013-03-05 09:44:00,33.7,28.0,30.14,North,10,4.0,4.0,80,0.00,,,0.00,weatherlink.com 1.10,2013-03-05 18:44:00,
2013-03-05 09:59:00,34.6,28.0,30.14,NE,53,1.0,5.0,78,0.00,,,0.00,weatherlink.com 1.10,2013-03-05 18:59:00,
2013-03-05 10:14:00,34.6,28.0,30.13,NNE,29,1.0,7.0,78,0.00,,,0.00,weatherlink.com 1.10,2013-03-05 19:14:00,
2013-03-05 10:29:00,34.7,28.0,30.13,NE,36,4.0,6.0,77,0.00,,,0.00,weatherlink.com 1.10,2013-03-05 19:29:00,
2013-03-05 10:44:00,35.1,28.0,30.13,ENE,73,5.0,7.0,76,0.00,,,0.00,weatherlink.com 1.10,2013-03-05 19:44:00,
2013-03-05 10:59:00,34.9,28.0,30.12,NE,53,2.0,6.0,76,0.00,,,0.00,weatherlink.com 1.10,2013-03-05 19:59:00,
2013-03-05 11:14:00,35.5,28.0,30.12,NE,45,2.0,6.0,75,0.00,,,0.00,weatherlink.com 1.10,2013-03-05 20:14:00,
2013-03-05 11:29:00,36.5,28.0,30.11,NE,45,0.0,4.0,70,0.00,,,0.00,weatherlink.com 1.10,2013-03-05 20:29:00,
2013-03-05 11:44:00,37.2,27.0,30.11,NE,45,4.0,4.0,68,0.00,,,0.00,weatherlink.com 1.10,2013-03-05 20:44:00,
2013-03-05 11:59:00,37.2,29.0,30.11,ESE,121,4.0,7.0,71,0.00,,,0.00,weatherlink.com 1.10,2013-03-05 20:59:00,
2013-03-05 12:14:00,36.9,27.0,30.11,ESE,121,1.0,7.0,68,0.00,,,0.00,weatherlink.com 1.10,2013-03-05 21:14:00,
2013-03-05 12:29:00,36.3,27.0,30.10,ESE,121,3.0,7.0,70,0.00,,,0.00,weatherlink.com 1.10,2013-03-05 21:29:00,
2013-03-05 12:44:00,36.3,26.0,30.10,ESE,121,2.0,7.0,67,0.00,,,0.00,weatherlink.com 1.10,2013-03-05 21:44:00,
2013-03-05 12:59:00,37.3,27.0,30.09,ESE,121,4.0,4.0,66,0.00,,,0.00,weatherlink.com 1.10,2013-03-05 21:59:00,
2013-03-05 13:14:00,38.2,27.0,30.09,ESE,116,5.0,8.0,65,0.00,,,0.00,weatherlink.com 1.10,2013-03-05 22:14:00,
2013-03-05 13:29:00,38.0,27.0,30.09,ESE,111,0.0,5.0,66,0.00,,,0.00,weatherlink.com 1.10,2013-03-05 22:29:00,
2013-03-05 13:44:00,37.9,27.0,30.08,ESE,111,2.0,5.0,65,0.00,,,0.00,weatherlink.com 1.10,2013-03-05 22:44:00,
2013-03-05 13:59:00,37.3,27.0,30.07,ESE,119,3.0,6.0,67,0.00,,,0.00,weatherlink.com 1.10,2013-03-05 22:59:00,
2013-03-05 14:14:00,37.5,27.0,30.07,SSE,161,1.0,3.0,67,0.00,,,0.00,weatherlink.com 1.10,2013-03-05 23:14:00,
2013-03-05 14:29:00,37.5,27.0,30.06,East,101,2.0,5.0,67,0.00,,,0.00,weatherlink.com 1.10,2013-03-05 23:29:00,
2013-03-05 14:44:00,37.9,27.0,30.06,East,101,1.0,2.0,65,0.00,,,0.00,weatherlink.com 1.10,2013-03-05 23:44:00,
2013-03-05 14:59:00,38.4,27.0,30.05,ESE,109,3.0,5.0,63,0.00,,,0.00,weatherlink.com 1.10,2013-03-05 23:59:00,
2013-03-05 15:14:00,38.1,27.0,30.04,ESE,110,2.0,5.0,64,0.00,,,0.00,weatherlink.com 1.10,2013-03-06 00:14:00,
2013-03-05 15:29:00,37.9,27.0,30.04,ESE,110,0.0,4.0,64,0.00,,,0.00,weatherlink.com 1.10,2013-03-06 00:29:00,
2013-03-05 15:45:00,38.6,27.0,30.03,ESE,109,1.0,4.0,63,0.00,,,0.00,weatherlink.com 1.10,2013-03-06 00:45:00,
2013-03-05 16:00:00,38.6,27.0,30.03,ESE,109,3.0,5.0,64,0.00,,,0.00,weatherlink.com 1.10,2013-03-06 01:00:00,
2013-03-05 16:15:00,38.3,27.0,30.02,SSE,158,1.0,7.0,64,0.00,,,0.00,weatherlink.com 1.10,2013-03-06 01:15:00,
2013-03-05 16:30:00,38.3,27.0,30.02,ESE,119,4.0,7.0,63,0.00,,,0.00,weatherlink.com 1.10,2013-03-06 01:30:00,
2013-03-05 16:45:00,38.3,27.0,30.02,ESE,119,0.0,5.0,64,0.00,,,0.00,weatherlink.com 1.10,2013-03-06 01:45:00,
2013-03-05 17:00:00,37.8,27.0,30.02,ESE,119,2.0,4.0,64,0.00,,,0.00,weatherlink.com 1.10,2013-03-06 02:00:00,
2013-03-05 17:15:00,37.2,27.0,30.01,ESE,119,0.0,4.0,66,0.00,,,0.00,weatherlink.com 1.10,2013-03-06 02:15:00,
2013-03-05 17:30:00,37.0,27.0,30.01,ESE,119,1.0,3.0,66,0.00,,,0.00,weatherlink.com 1.10,2013-03-06 02:30:00,
2013-03-05 17:45:00,36.5,27.0,30.01,ESE,119,2.0,5.0,68,0.00,,,0.00,weatherlink.com 1.10,2013-03-06 02:45:00,
2013-03-05 18:00:00,35.7,27.0,30.00,ESE,119,0.0,2.0,71,0.00,,,0.00,weatherlink.com 1.10,2013-03-06 03:00:00,
2013-03-05 18:15:00,35.5,27.0,30.00,ESE,119,0.0,0.0,71,0.00,,,0.00,weatherlink.com 1.10,2013-03-06 03:15:00,
2013-03-05 18:30:00,34.9,27.0,30.00,ESE,119,0.0,1.0,72,0.00,,,0.00,weatherlink.com 1.10,2013-03-06 03:30:00,
2013-03-05 18:45:00,34.3,26.0,30.00,ESE,119,1.0,2.0,72,0.00,,,0.00,weatherlink.com 1.10,2013-03-06 03:45:00,
2013-03-05 19:00:00,33.6,26.0,30.00,ESE,119,2.0,2.0,73,0.00,,,0.00,weatherlink.com 1.10,2013-03-06 04:00:00,
2013-03-05 19:15:00,31.3,25.0,30.00,ESE,119,0.0,3.0,77,0.00,,,0.00,weatherlink.com 1.10,2013-03-06 04:15:00,
2013-03-05 19:30:00,29.9,24.0,29.99,ESE,119,1.0,3.0,79,0.00,,,0.00,weatherlink.com 1.10,2013-03-06 04:30:00,
2013-03-05 19:45:00,30.5,25.0,29.99,ESE,119,2.0,2.0,81,0.00,,,0.00,weatherlink.com 1.10,2013-03-06 04:45:00,
2013-03-05 20:00:00,31.0,26.0,29.99,ESE,119,0.0,2.0,80,0.00,,,0.00,weatherlink.com 1.10,2013-03-06 05:00:00,
2013-03-05 20:15:00,31.7,26.0,29.99,ESE,119,0.0,1.0,79,0.00,,,0.00,weatherlink.com 1.10,2013-03-06 05:15:00,
2013-03-05 20:30:00,30.9,25.0,29.99,ESE,119,1.0,3.0,78,0.00,,,0.00,weatherlink.com 1.10,2013-03-06 05:30:00,
2013-03-05 20:45:00,31.6,26.0,29.98,ESE,119,1.0,3.0,81,0.00,,,0.00,weatherlink.com 1.10,2013-03-06 05:45:00,
2013-03-05 21:00:00,31.9,27.0,29.97,ESE,119,2.0,4.0,81,0.00,,,0.00,weatherlink.com 1.10,2013-03-06 06:00:00,
2013-03-05 21:15:00,32.1,27.0,29.96,ESE,119,3.0,5.0,80,0.00,,,0.00,weatherlink.com 1.10,2013-03-06 06:15:00,
2013-03-05 21:30:00,32.3,26.0,29.96,ESE,119,1.0,4.0,79,0.00,,,0.00,weatherlink.com 1.10,2013-03-06 06:30:00,
2013-03-05 21:45:00,32.3,26.0,29.96,ESE,119,0.0,4.0,79,0.00,,,0.00,weatherlink.com 1.10,2013-03-06 06:45:00,
2013-03-05 22:00:00,32.4,26.0,29.96,ESE,119,1.0,3.0,78,0.00,,,0.00,weatherlink.com 1.10,2013-03-06 07:00:00,
2013-03-05 22:15:00,31.9,26.0,29.96,ESE,119,0.0,7.0,80,0.00,,,0.00,weatherlink.com 1.10,2013-03-06 07:15:00,
2013-03-05 22:30:00,31.4,26.0,29.96,ESE,119,2.0,4.0,81,0.00,,,0.00,weatherlink.com 1.10,2013-03-06 07:30:00,
2013-03-05 22:45:00,30.7,26.0,29.96,ESE,119,1.0,4.0,82,0.00,,,0.00,weatherlink.com 1.10,2013-03-06 07:45:00,
2013-03-05 23:00:00,30.7,26.0,29.96,ESE,119,3.0,4.0,83,0.00,,,0.00,weatherlink.com 1.10,2013-03-06 08:00:00,
2013-03-05 23:15:00,31.0,27.0,29.96,ESE,119,1.0,3.0,84,0.00,,,0.00,weatherlink.com 1.10,2013-03-06 08:15:00,
2013-03-05 23:30:00,31.5,27.0,29.96,ESE,119,1.0,3.0,82,0.00,,,0.00,weatherlink.com 1.10,2013-03-06 08:30:00,
2013-03-05 23:45:00,31.1,27.0,29.95,ESE,119,2.0,5.0,83,0.00,,,0.00,weatherlink.com 1.10,2013-03-06 08:45:00,